Regional Weather Roundup
Issued by NWS Sioux Falls, SD

Home | Current Version | Previous Version | Graphics & Text | Print | Product List | Glossary Off
Versions: 1 2 3 4 5 6 7 8 9 10 11 12 13 14 15 16 17 18 19 20 21 22 23 24 25 26 27 28 29 30 31 32 33 34 35 36 37 38 39 40 41 42 43 44 45 46 47 48 49 50

000
ASUS43 KFSD 271202
RWRFSD

WEATHER ROUNDUP FOR SE SOUTH DAKOTA/SW MINNESOTA/NW IOWA
NATIONAL WEATHER SERVICE SIOUX FALLS SD
700 AM CDT WED MAY 27 2015

NOTE: "FAIR" INDICATES FEW OR NO CLOUDS BELOW 12,000 FEET WITH NO
SIGNIFICANT WEATHER AND OR OBSTRUCTIONS TO VISIBILITY.


SDZ038>040-050-052>070-271300-
SOUTHEAST SOUTH DAKOTA

CITY           SKY/WX    TMP DP  RH WIND       PRES   REMARKS
BROOKINGS      SUNNY     55  48  76 W5        29.97S
CHAMBERLAIN    CLEAR     54  49  85 W6        30.00R
6HR MIN TEMP:  51; 6HR MAX TEMP:  58;

HURON          CLEAR     53  50  89 SE3       29.97R
6HR MIN TEMP:  49; 6HR MAX TEMP:  56;

MADISON        FAIR      57  52  82 W8        29.98R
MITCHELL       CLEAR     57  51  80 W6        29.98R
6HR MIN TEMP:  55; 6HR MAX TEMP:  61;

SIOUX FALLS    SUNNY     55  50  83 W5        29.98R
6HR MIN TEMP:  49; 6HR MAX TEMP:  56;

WINNER         FAIR      60  45  57 SW8       30.01R
YANKTON        CLEAR     55  48  76 CALM      29.99R
$$

MNZ071-072-080-081-089-090-097-098-271300-
SOUTHWEST MINNESOTA

CITY           SKY/WX    TMP DP  RH WIND       PRES   REMARKS
FAIRMONT       PTSUNNY   57  52  82 SW6       29.94S
JACKSON        MOSUNNY   54  52  94 SW8       29.97R
LUVERNE        SUNNY     54  50  87 CALM      29.98R
MARSHALL       SUNNY     55  46  71 W10       29.93R
6HR MIN TEMP:  54; 6HR MAX TEMP:  57;

MONTEVIDEO     MOSUNNY   59  52  77 W6        29.91R
REDWOOD FALLS  SUNNY     56  51  84 W6        29.91R
TRACY          SUNNY     59  51  75 W8        29.94S
WINDOM         MOSUNNY   54  52  94 SW7       29.95R
WORTHINGTON    SUNNY     55  48  76 W9        29.97S
$$

IAZ001>003-012>014-020>022-031-032-NEZ013-014-SDZ071-271300-
NORTHWEST IOWA

CITY           SKY/WX    TMP DP  RH WIND       PRES   REMARKS
DENISON        FOG       52  52 100 CALM      29.99R VSB 1/2
ESTHERVILLE    PTSUNNY   53  52  96 SW8       29.96R FOG
SIOUX CITY     SUNNY     54  50  86 CALM      30.00R
6HR MIN TEMP:  50; 6HR MAX TEMP:  56;

SPENCER        SUNNY     51  49  92 SW5       29.98R FOG
6HR MIN TEMP:  50; 6HR MAX TEMP:  57;

$$

ABBREVIATIONS USED IN REMARKS
   TC - TEMPERATURE IN CELSIUS
  WCI - WIND CHILL INDEX
   HX - HEAT INDEX
  VSB - VISIBILITY




USA.gov is the U.S. government's official web portal to all federal, state and local government web resources and services.